Location: Broletto
(44.6000°N, 10.5833°E)
Time: 02:17:42
(UTC+00:00)

CARTOSAT-1 - Pass Details

Date: 18 April 2021
Orbit: 615 x 619 km, 97.8° (Epoch: 07 May)

Event Time Altitude Azimuth Distance (km) Brightness Sun altitude
Exits shadow 21:04:22 54° 279° (W) 755 4.1 -26.7°
Drops below altitude 10° 21:08:19 10° 339° (NNW) 1,992 7.1 -27.1°
Sets 21:10:33 0° 343° (NNW) 2,902 8.1 -27.4°
